{"data":{"norad_id":68195,"epoch":"2026-05-24T18:32:37.424832Z","epoch_age_seconds":94940,"freshness":"FRESH","line1":"1 68195U 26050AE  26144.77265538  .00028891  00000+0  86322-3 0  9993","line2":"2 68195  53.1595 272.5057 0001172  86.4064 273.7073 15.34388932 10787","mean_motion":15.34388932,"eccentricity":0.0001172,"inclination_deg":53.1595,"raan_deg":272.5057,"arg_perigee_deg":86.4064,"mean_anomaly_deg":273.7073,"bstar":0.00086322,"rev_number":1078,"period_min":93.848435032898,"perigee_km":461.93438650169,"apogee_km":463.53788716496,"semimajor_km":6840.8731368333,"source":"CELESTRAK","updated_at":"2026-05-25T13:38:21.876675Z"}}